Regional Weather Roundup
Issued by NWS

Home | Current Version | Previous Version | Graphics & Text | Print | Product List | Glossary On
Versions: 1 2 3 4 5 6 7 8 9 10 11 12 13 14 15 16 17 18 19 20 21 22 23 24 25 26 27 28 29 30 31 32 33 34 35 36 37 38 39 40 41 42 43 44 45 46 47 48 49 50
190
ASUS45 KCYS 061410
RWRWY

WYOMING REGIONAL WEATHER ROUNDUP
NATIONAL WEATHER SERVICE CHEYENNE WY
700 AM MST SAT FEB 06 2016

NOTE:  "FAIR" INDICATES FEW OR NO CLOUDS BELOW 12,000 FEET
WITH NO SIGNIFICANT WEATHER AND/OR OBSTRUCTIONS TO VISIBILITY.

WYZ001-061500-
YELLOWSTONE NATIONAL PARK

CITY           SKY/WX    TMP DP  RH WIND       PRES   REMARKS
LK YELLOWSTONE   N/A     21  16  81 VRB6      30.32S WCI  13
W YELLOWSTONE  NOT AVBL

$$
WYZ002>013-054>058-071-098>099-061500-
NORTHERN WYOMING

CITY           SKY/WX    TMP DP  RH WIND       PRES   REMARKS
JACKSON        PTCLDY    18  18 100 SE7       30.36S WCI   8
CODY           FAIR      39  18  41 W20G38    30.11R WCI  30
GREYBULL       FAIR      17  13  84 SE5       30.19F WCI  10
WORLAND        FAIR      18  14  84 SW3       30.19F
SHERIDAN       MOCLDY    30  18  59 S2        29.96F
BUFFALO        MOCLDY    37  17  44 NE3       30.02S
GILLETTE       FAIR      33  20  58 SW21      30.01F WCI  21
HULETT         FAIR      32  19  59 SW14      30.03S WCI  22
NEWCASTLE      FAIR      21  14  73 N8        30.10F WCI  12

$$
WYZ014>020-022>026-101>103-061500-
CENTRAL WYOMING

CITY           SKY/WX    TMP DP  RH WIND       PRES   REMARKS
BIG PINEY      FAIR       7   4  87 SE3       30.35F
PINEDALE       FAIR      14  12  92 W6        30.35S WCI   5
DUBOIS         FAIR      23  14  68 N24G32    30.23S WCI   7
LANDER         FAIR      23  11  60 SW9       30.22R WCI  13
RIVERTON       FAIR      17   9  70 S7        30.20S WCI   8
CASPER         FLURRIES  24  17  74 SW35G47   30.17F WCI   6
DOUGLAS        FAIR      30  18  60 W14         N/A  WCI  19

$$
WYZ021-027>030-104>119-061500-
SOUTHERN WYOMING

CITY           SKY/WX    TMP DP  RH WIND       PRES   REMARKS
EVANSTON       FAIR      14   9  80 SW15      30.42S WCI  -1
FORT BRIDGER   MOSUNNY   19  14  79 W20       30.44S WCI   4
ROCK SPRINGS   FAIR      19  13  77 SW23      30.38S WCI   2
DIXON          FAIR       1  -3  85 E3        30.46F
RAWLINS        FAIR      22  12  65 SW24G36   30.30F WCI   5
SARATOGA       FAIR      14   9  79 SE14      30.33F WCI  -1
LARAMIE        FAIR      19   9  65 SW21      30.22F WCI   3
CHEYENNE       FAIR      31  15  52 W26G38    30.13S WCI  17
TORRINGTON     FAIR      30  18  60 W16       30.14F WCI  19
PINE BLUFFS    FAIR      25  14  63 W9        30.18S WCI  15

$$




USA.gov is the U.S. government's official web portal to all federal, state and local government web resources and services.